Time,TemperatureF,DewpointF,PressureIn,WindDirection,WindDirectionDegrees,WindSpeedMPH,WindSpeedGustMPH,Humidity,HourlyPrecipIn,Conditions,Clouds,dailyrainin,SoftwareType,DateUTC
2013-01-18 00:00:00,35.1,28.6,29.82,East,81,8.0,15.0,77,0.00,CLR,,0.00,WeatherDisplay:10.37,2013-01-18 00:00:00,
2013-01-18 00:15:00,35.2,28.7,29.82,East,88,7.0,15.0,77,0.00,CLR,,0.00,WeatherDisplay:10.37,2013-01-18 00:15:00,
2013-01-18 00:30:00,35.3,28.5,29.82,East,88,9.0,18.0,76,0.00,CLR,,0.00,WeatherDisplay:10.37,2013-01-18 00:30:00,
2013-01-18 00:45:00,35.4,27.9,29.81,East,86,9.0,18.0,74,0.00,CLR,,0.00,WeatherDisplay:10.37,2013-01-18 00:45:00,
2013-01-18 01:00:00,35.5,28.0,29.81,East,88,8.0,18.0,74,0.00,CLR,,0.00,WeatherDisplay:10.37,2013-01-18 01:00:00,
2013-01-18 01:15:00,35.6,27.8,29.80,East,83,9.0,16.0,73,0.00,CLR,,0.00,WeatherDisplay:10.37,2013-01-18 01:15:00,
2013-01-18 01:30:00,35.7,26.9,29.80,East,87,7.0,15.0,70,0.00,CLR,,0.00,WeatherDisplay:10.37,2013-01-18 01:30:00,
2013-01-18 01:45:00,35.7,27.2,29.80,ENE,72,6.0,14.0,71,0.00,CLR,,0.00,WeatherDisplay:10.37,2013-01-18 01:45:00,
2013-01-18 02:00:00,35.7,26.5,29.80,East,84,8.0,20.0,69,0.00,CLR,,0.00,WeatherDisplay:10.37,2013-01-18 02:00:00,
2013-01-18 02:15:00,35.4,27.6,29.80,East,81,9.0,18.0,73,0.00,CLR,,0.00,WeatherDisplay:10.37,2013-01-18 02:15:00,
2013-01-18 02:30:00,34.8,27.7,29.80,East,86,9.0,20.0,75,0.00,CLR,,0.00,WeatherDisplay:10.37,2013-01-18 02:30:00,
2013-01-18 02:45:00,34.4,27.9,29.79,East,88,12.0,20.0,77,0.00,CLR,,0.00,WeatherDisplay:10.37,2013-01-18 02:45:00,
2013-01-18 03:00:00,34.2,28.1,29.78,East,86,14.0,20.0,78,0.00,CLR,,0.00,WeatherDisplay:10.37,2013-01-18 03:00:00,
2013-01-18 03:15:00,34.3,28.1,29.78,East,94,12.0,22.0,78,0.00,CLR,,0.00,WeatherDisplay:10.37,2013-01-18 03:15:00,
2013-01-18 03:30:00,34.2,28.1,29.77,East,92,15.0,27.0,78,0.00,CLR,,0.00,WeatherDisplay:10.37,2013-01-18 03:30:00,
2013-01-18 03:45:00,34.3,28.2,29.77,East,101,10.0,22.0,78,0.00,CLR,,0.00,WeatherDisplay:10.37,2013-01-18 03:45:00,
2013-01-18 04:00:00,34.2,28.1,29.77,East,97,12.0,21.0,78,0.00,CLR,,0.00,WeatherDisplay:10.37,2013-01-18 04:00:00,
2013-01-18 04:15:00,34.2,28.4,29.76,ESE,102,9.0,20.0,79,0.00,CLR,,0.00,WeatherDisplay:10.37,2013-01-18 04:15:00,
2013-01-18 04:30:00,34.3,28.8,29.76,ESE,102,9.0,20.0,80,0.00,CLR,,0.00,WeatherDisplay:10.37,2013-01-18 04:30:00,
2013-01-18 04:45:00,34.3,28.8,29.76,ESE,103,10.0,20.0,80,0.00,CLR,,0.00,WeatherDisplay:10.37,2013-01-18 04:45:00,
2013-01-18 05:15:00,34.4,28.6,29.75,East,96,12.0,21.0,79,0.00,CLR,,0.00,WeatherDisplay:10.37,2013-01-18 05:15:00,
2013-01-18 05:30:00,34.6,29.1,29.75,East,101,12.0,20.0,80,0.00,CLR,,0.00,WeatherDisplay:10.37,2013-01-18 05:30:00,
2013-01-18 05:45:00,34.7,28.9,29.74,ESE,102,8.0,22.0,79,0.00,CLR,,0.00,WeatherDisplay:10.37,2013-01-18 05:45:00,
2013-01-18 06:00:00,34.7,28.5,29.74,East,101,14.0,25.0,78,0.00,CLR,,0.00,WeatherDisplay:10.37,2013-01-18 06:00:00,
2013-01-18 06:15:00,34.7,28.5,29.74,East,97,10.0,23.0,78,0.00,CLR,,0.00,WeatherDisplay:10.37,2013-01-18 06:15:00,
2013-01-18 06:30:00,34.7,28.2,29.73,East,89,14.0,25.0,77,0.00,CLR,,0.00,WeatherDisplay:10.37,2013-01-18 06:30:00,
2013-01-18 06:45:00,34.7,28.2,29.73,East,91,12.0,22.0,77,0.00,CLR,,0.00,WeatherDisplay:10.37,2013-01-18 06:45:00,
2013-01-18 07:00:00,34.5,27.7,29.72,East,88,10.0,22.0,76,0.00,CLR,,0.00,WeatherDisplay:10.37,2013-01-18 07:00:00,
2013-01-18 07:15:00,34.3,27.2,29.72,East,89,13.0,22.0,75,0.00,CLR,,0.00,WeatherDisplay:10.37,2013-01-18 07:15:00,
2013-01-18 07:30:00,34.1,27.0,29.71,East,83,13.0,22.0,75,0.00,CLR,,0.00,WeatherDisplay:10.37,2013-01-18 07:30:00,
2013-01-18 07:45:00,34.1,26.7,29.71,East,91,15.0,22.0,74,0.00,CLR,,0.00,WeatherDisplay:10.37,2013-01-18 07:45:00,
2013-01-18 08:00:00,33.9,26.5,29.71,East,91,13.0,21.0,74,0.00,CLR,,0.00,WeatherDisplay:10.37,2013-01-18 08:00:00,
2013-01-18 08:15:00,33.9,26.5,29.71,East,85,15.0,21.0,74,0.00,CLR,,0.00,WeatherDisplay:10.37,2013-01-18 08:15:00,
2013-01-18 08:30:00,33.9,26.8,29.71,East,83,9.0,21.0,75,0.00,CLR,,0.00,WeatherDisplay:10.37,2013-01-18 08:30:00,
2013-01-18 08:45:00,33.7,26.0,29.70,East,89,13.0,20.0,73,0.00,CLR,,0.00,WeatherDisplay:10.37,2013-01-18 08:45:00,
2013-01-18 09:00:00,33.7,25.6,29.70,East,92,13.0,20.0,72,0.00,CLR,,0.00,WeatherDisplay:10.37,2013-01-18 09:00:00,
2013-01-18 09:15:00,33.9,25.1,29.70,East,88,15.0,21.0,70,0.00,CLR,,0.00,WeatherDisplay:10.37,2013-01-18 09:15:00,
2013-01-18 09:30:00,34.0,26.6,29.70,East,93,9.0,20.0,74,0.00,CLR,,0.00,WeatherDisplay:10.37,2013-01-18 09:30:00,
2013-01-18 09:45:00,34.1,26.1,29.69,East,90,10.0,20.0,72,0.00,CLR,,0.00,WeatherDisplay:10.37,2013-01-18 09:45:00,
2013-01-18 10:00:00,34.4,26.3,29.69,East,93,13.0,18.0,72,0.00,CLR,,0.00,WeatherDisplay:10.37,2013-01-18 10:00:00,
2013-01-18 10:15:00,34.6,26.8,29.69,East,88,14.0,20.0,73,0.00,CLR,,0.00,WeatherDisplay:10.37,2013-01-18 10:15:00,
2013-01-18 10:30:00,34.6,26.8,29.69,East,92,10.0,20.0,73,0.00,CLR,,0.00,WeatherDisplay:10.37,2013-01-18 10:30:00,
2013-01-18 10:45:00,34.7,27.3,29.69,East,97,10.0,20.0,74,0.00,CLR,,0.00,WeatherDisplay:10.37,2013-01-18 10:45:00,
2013-01-18 11:00:00,34.5,26.4,29.68,ESE,109,10.0,20.0,72,0.00,CLR,,0.00,WeatherDisplay:10.37,2013-01-18 11:00:00,
2013-01-18 11:15:00,34.5,26.7,29.68,East,93,10.0,20.0,73,0.00,CLR,,0.00,WeatherDisplay:10.37,2013-01-18 11:15:00,
2013-01-18 11:30:00,34.6,27.5,29.67,East,95,13.0,22.0,75,0.00,CLR,,0.00,WeatherDisplay:10.37,2013-01-18 11:30:00,
2013-01-18 11:45:00,34.5,27.1,29.67,East,92,10.0,20.0,74,0.00,CLR,,0.00,WeatherDisplay:10.37,2013-01-18 11:45:00,
2013-01-18 12:00:00,34.7,26.9,29.66,East,94,13.0,20.0,73,0.00,CLR,,0.00,WeatherDisplay:10.37,2013-01-18 12:00:00,
2013-01-18 12:15:00,34.9,27.7,29.66,East,94,9.0,21.0,75,0.00,CLR,,0.00,WeatherDisplay:10.37,2013-01-18 12:15:00,
2013-01-18 12:30:00,35.1,27.6,29.66,East,89,14.0,20.0,74,0.00,CLR,,0.00,WeatherDisplay:10.37,2013-01-18 12:30:00,
2013-01-18 12:45:00,35.1,27.3,29.65,East,92,13.0,21.0,73,0.00,CLR,,0.00,WeatherDisplay:10.37,2013-01-18 12:45:00,
2013-01-18 13:00:00,35.2,27.1,29.65,East,94,12.0,20.0,72,0.00,CLR,,0.00,WeatherDisplay:10.37,2013-01-18 13:00:00,
2013-01-18 13:15:00,35.3,26.8,29.65,East,100,9.0,22.0,71,0.00,CLR,,0.00,WeatherDisplay:10.37,2013-01-18 13:15:00,
2013-01-18 13:30:00,35.4,26.6,29.64,ESE,111,10.0,22.0,70,0.00,CLR,,0.00,WeatherDisplay:10.37,2013-01-18 13:30:00,
2013-01-18 13:45:00,35.3,26.5,29.64,ESE,102,15.0,24.0,70,0.00,CLR,,0.00,WeatherDisplay:10.37,2013-01-18 13:45:00,
2013-01-18 14:00:00,35.4,26.5,29.63,ESE,105,9.0,27.0,70,0.00,CLR,,0.00,WeatherDisplay:10.37,2013-01-18 14:00:00,
2013-01-18 14:15:00,35.5,27.0,29.62,East,98,14.0,23.0,71,0.00,CLR,,0.00,WeatherDisplay:10.37,2013-01-18 14:15:00,
2013-01-18 14:30:00,35.3,26.8,29.62,East,95,15.0,23.0,71,0.00,CLR,,0.00,WeatherDisplay:10.37,2013-01-18 14:30:00,
2013-01-18 14:45:00,35.2,27.4,29.62,East,97,16.0,23.0,73,0.00,CLR,,0.00,WeatherDisplay:10.37,2013-01-18 14:45:00,
2013-01-18 15:00:00,35.0,27.2,29.62,ESE,102,10.0,22.0,73,0.00,CLR,,0.00,WeatherDisplay:10.37,2013-01-18 15:00:00,
2013-01-18 15:15:00,35.0,26.9,29.61,East,94,13.0,21.0,72,0.00,CLR,,0.00,WeatherDisplay:10.37,2013-01-18 15:15:00,
2013-01-18 15:30:00,34.7,27.6,29.60,East,92,9.0,20.0,75,0.00,CLR,,0.00,WeatherDisplay:10.37,2013-01-18 15:30:00,
2013-01-18 15:45:00,34.6,27.8,29.60,East,91,13.0,20.0,76,0.00,CLR,,0.00,WeatherDisplay:10.37,2013-01-18 15:45:00,
2013-01-18 16:00:00,34.3,28.5,29.60,East,91,10.0,21.0,79,0.00,CLR,,0.00,WeatherDisplay:10.37,2013-01-18 16:00:00,
2013-01-18 16:15:00,34.0,28.5,29.59,East,87,9.0,18.0,80,0.00,CLR,,0.00,WeatherDisplay:10.37,2013-01-18 16:15:00,
2013-01-18 16:30:00,34.0,29.1,29.59,East,84,10.0,18.0,82,0.00,CLR,,0.00,WeatherDisplay:10.37,2013-01-18 16:30:00,
2013-01-18 16:45:00,33.9,29.0,29.58,East,86,9.0,18.0,82,0.00,CLR,,0.00,WeatherDisplay:10.37,2013-01-18 16:45:00,
2013-01-18 17:00:00,33.9,29.9,29.58,ENE,77,6.0,20.0,85,0.00,CLR,,0.00,WeatherDisplay:10.37,2013-01-18 17:00:00,
2013-01-18 17:15:00,34.0,30.3,29.58,East,81,8.0,16.0,86,0.00,CLR,,0.00,WeatherDisplay:10.37,2013-01-18 17:15:00,
2013-01-18 17:30:00,34.3,30.0,29.58,East,87,9.0,22.0,84,0.00,CLR,,0.00,WeatherDisplay:10.37,2013-01-18 17:30:00,
2013-01-18 17:45:00,34.5,30.2,29.58,East,93,10.0,21.0,84,0.00,CLR,,0.00,WeatherDisplay:10.37,2013-01-18 17:45:00,
2013-01-18 18:00:00,33.9,30.7,29.58,ENE,77,8.0,21.0,88,0.00,CLR,,0.00,WeatherDisplay:10.37,2013-01-18 18:00:00,
2013-01-18 18:15:00,33.8,30.9,29.58,East,84,10.0,24.0,89,0.00,CLR,,0.00,WeatherDisplay:10.37,2013-01-18 18:15:00,
2013-01-18 18:30:00,33.9,31.3,29.58,East,90,13.0,22.0,90,0.00,CLR,,0.00,WeatherDisplay:10.37,2013-01-18 18:30:00,
2013-01-18 18:45:00,34.3,31.7,29.57,East,90,15.0,25.0,90,0.00,CLR,,0.00,WeatherDisplay:10.37,2013-01-18 18:45:00,
2013-01-18 19:00:00,34.5,30.7,29.57,East,86,16.0,28.0,86,0.00,CLR,,0.00,WeatherDisplay:10.37,2013-01-18 19:00:00,
2013-01-18 19:15:00,34.4,30.9,29.58,East,92,12.0,28.0,87,0.00,CLR,,0.00,WeatherDisplay:10.37,2013-01-18 19:15:00,
2013-01-18 19:30:00,34.3,30.5,29.58,East,94,14.0,23.0,86,0.00,CLR,,0.00,WeatherDisplay:10.37,2013-01-18 19:30:00,
2013-01-18 19:45:00,34.3,30.5,29.59,East,94,12.0,20.0,86,0.00,CLR,,0.00,WeatherDisplay:10.37,2013-01-18 19:45:00,
2013-01-18 20:00:00,34.1,31.2,29.59,East,92,12.0,20.0,89,0.00,CLR,,0.00,WeatherDisplay:10.37,2013-01-18 20:00:00,
2013-01-18 20:15:00,34.0,30.9,29.59,East,89,9.0,20.0,88,0.00,CLR,,0.00,WeatherDisplay:10.37,2013-01-18 20:15:00,
2013-01-18 20:30:00,33.7,30.8,29.59,East,89,15.0,21.0,89,0.00,CLR,,0.00,WeatherDisplay:10.37,2013-01-18 20:30:00,
2013-01-18 20:45:00,32.8,31.0,29.59,East,92,15.0,24.0,93,0.00,CLR,,0.00,WeatherDisplay:10.37,2013-01-18 20:45:00,
2013-01-18 21:00:00,32.7,31.2,29.59,East,91,15.0,22.0,94,0.00,CLR,,0.00,WeatherDisplay:10.37,2013-01-18 21:00:00,
2013-01-18 21:15:00,32.6,31.1,29.60,East,95,12.0,20.0,94,0.00,CLR,,0.00,WeatherDisplay:10.37,2013-01-18 21:15:00,
2013-01-18 21:30:00,32.5,31.2,29.60,East,95,8.0,17.0,95,0.00,CLR,,0.00,WeatherDisplay:10.37,2013-01-18 21:30:00,
2013-01-18 21:45:00,32.6,31.3,29.59,East,96,8.0,17.0,95,0.00,CLR,,0.00,WeatherDisplay:10.37,2013-01-18 21:45:00,
2013-01-18 22:00:00,33.0,31.8,29.59,East,98,7.0,16.0,95,0.00,CLR,,0.00,WeatherDisplay:10.37,2013-01-18 22:00:00,
2013-01-18 22:15:00,33.1,31.8,29.59,East,95,10.0,16.0,95,0.00,CLR,,0.00,WeatherDisplay:10.37,2013-01-18 22:15:00,
2013-01-18 22:30:00,33.3,31.8,29.59,East,90,9.0,17.0,94,0.00,CLR,,0.00,WeatherDisplay:10.37,2013-01-18 22:30:00,
2013-01-18 22:45:00,33.6,32.0,29.59,East,101,8.0,20.0,94,0.00,CLR,,0.00,WeatherDisplay:10.37,2013-01-18 22:45:00,
2013-01-18 23:00:00,34.0,32.2,29.59,East,98,14.0,23.0,93,0.00,CLR,,0.00,WeatherDisplay:10.37,2013-01-18 23:00:00,
2013-01-18 23:15:00,34.2,31.8,29.59,East,93,12.0,23.0,91,0.00,CLR,,0.00,WeatherDisplay:10.37,2013-01-18 23:15:00,
2013-01-18 23:30:00,34.7,31.8,29.59,East,95,12.0,21.0,89,0.00,CLR,,0.00,WeatherDisplay:10.37,2013-01-18 23:30:00,
2013-01-18 23:45:00,34.8,31.3,29.59,East,94,8.0,21.0,87,0.00,CLR,,0.00,WeatherDisplay:10.37,2013-01-18 23:45:00,